| time (UTC) | temp F | wind direction | speed MPH | gust MPH | rain 1hr in | rain 24hr in | rain mn in | humidity % | barometer mb |
| 20260901051533 | 59 | 201 | 1.0 | 6.0 | 0.00 | 0.00 | 0.00 | 49 | 1011.8 |
| 20260901050034 | 59 | 193 | 2.0 | 5.0 | 0.00 | 0.00 | 0.00 | 50 | 1011.7 |
| 20260901044642 | 60 | 189 | 2.0 | 4.0 | 0.00 | 0.00 | 0.00 | 51 | 1011.6 |
| 20260901043029 | 60 | 198 | 1.0 | 4.0 | 0.00 | 0.00 | 0.00 | 50 | 1011.6 |
| 20260901041532 | 61 | 228 | 2.0 | 5.0 | 0.00 | 0.00 | 0.00 | 51 | 1011.6 |
| 20260901040146 | 61 | 220 | 0.0 | 3.0 | 0.00 | 0.00 | 0.00 | 51 | 1011.5 |
| 20260901034529 | 60 | 217 | 0.0 | 3.0 | 0.00 | 0.00 | 0.00 | 55 | 1011.4 |
| 20260901031642 | 62 | 292 | 1.0 | 4.0 | 0.00 | 0.00 | 0.00 | 53 | 1011.0 |
| 20260901030033 | 63 | 329 | 0.0 | 4.0 | 0.00 | 0.00 | 0.00 | 53 | 1010.9 |
| 20260901021536 | 69 | 45 | 1.0 | 3.0 | 0.00 | 0.00 | 0.00 | 47 | 1010.5 |
| 20260901014536 | 76 | 36 | 2.0 | 5.0 | 0.00 | 0.00 | 0.00 | 39 | 1010.5 |
| 20260901013032 | 77 | 53 | 1.0 | 5.0 | 0.00 | 0.00 | 0.00 | 35 | 1010.5 |
| 20260901011529 | 78 | 41 | 3.0 | 8.0 | 0.00 | 0.00 | 0.00 | 33 | 1010.5 |
| 20260901010031 | 79 | 28 | 4.0 | 10.0 | 0.00 | 0.00 | 0.00 | 32 | 1010.6 |
| 20260901004535 | 80 | 35 | 4.0 | 10.0 | 0.00 | 0.00 | 0.00 | 31 | 1010.8 |
| 20260901001535 | 82 | 38 | 4.0 | 12.0 | 0.00 | 0.00 | 0.00 | 29 | 1010.9 |
| 20260901000034 | 83 | 28 | 5.0 | 14.0 | 0.00 | 0.00 | 0.00 | 29 | 1011.1 |
| 20260831234536 | 85 | 45 | 4.0 | 10.0 | 0.00 | 0.00 | 0.00 | 28 | 1011.3 |
| 20260831233028 | 85 | 55 | 4.0 | 10.0 | 0.00 | 0.00 | 0.00 | 28 | 1011.4 |
| 20260831231530 | 85 | 61 | 3.0 | 9.0 | 0.00 | 0.00 | 0.00 | 28 | 1011.6 |
| 20260831230034 | 86 | 36 | 5.0 | 11.0 | 0.00 | 0.00 | 0.00 | 28 | 1011.8 |
| 20260831224537 | 86 | 42 | 4.0 | 13.0 | 0.00 | 0.00 | 0.00 | 28 | 1012.1 |
| 20260831223036 | 86 | 23 | 4.0 | 12.0 | 0.00 | 0.00 | 0.00 | 28 | 1012.3 |
| 20260831221531 | 87 | 23 | 5.0 | 12.0 | 0.00 | 0.00 | 0.00 | 28 | 1012.5 |
| 20260831220143 | 88 | 41 | 5.0 | 13.0 | 0.00 | 0.00 | 0.00 | 28 | 1012.7 |
| 20260831213144 | 87 | 63 | 2.0 | 10.0 | 0.00 | 0.00 | 0.00 | 29 | 1013.2 |
| 20260831211532 | 83 | 60 | 4.0 | 12.0 | 0.00 | 0.00 | 0.00 | 32 | 1013.4 |
| 20260831210031 | 81 | 39 | 5.0 | 11.0 | 0.00 | 0.00 | 0.00 | 33 | 1013.6 |
| 20260831203034 | 79 | 18 | 4.0 | 7.0 | 0.00 | 0.00 | 0.00 | 35 | 1014.1 |
| 20260831200031 | 77 | 42 | 4.0 | 10.0 | 0.00 | 0.00 | 0.00 | 38 | 1014.7 |
| 20260831194534 | 77 | 29 | 5.0 | 15.0 | 0.00 | 0.00 | 0.00 | 38 | 1014.9 |
| 20260831191530 | 76 | 44 | 6.0 | 12.0 | 0.00 | 0.00 | 0.00 | 40 | 1015.4 |
| 20260831190147 | 74 | 52 | 5.0 | 14.0 | 0.00 | 0.00 | 0.00 | 43 | 1015.7 |
| 20260831184531 | 72 | 33 | 5.0 | 12.0 | 0.00 | 0.00 | 0.00 | 46 | 1016.0 |
| 20260831183037 | 71 | 18 | 5.0 | 13.0 | 0.00 | 0.00 | 0.00 | 48 | 1016.3 |
| 20260831181530 | 70 | 30 | 2.0 | 9.0 | 0.00 | 0.00 | 0.00 | 52 | 1016.5 |
| 20260831180031 | 68 | 5 | 3.0 | 8.0 | 0.00 | 0.00 | 0.00 | 55 | 1016.8 |
| 20260831174532 | 67 | 343 | 2.0 | 7.0 | 0.00 | 0.00 | 0.00 | 56 | 1016.9 |
| 20260831173031 | 65 | 11 | 3.0 | 7.0 | 0.00 | 0.00 | 0.00 | 57 | 1017.0 |
| 20260831171609 | 65 | 1 | 3.0 | 7.0 | 0.00 | 0.00 | 0.00 | 59 | 1017.2 |
| 20260831170031 | 63 | 319 | 4.0 | 9.0 | 0.00 | 0.00 | 0.00 | 61 | 1017.2 |
| 20260831164642 | 62 | 339 | 3.0 | 7.0 | 0.00 | 0.00 | 0.00 | 66 | 1017.3 |
| 20260831161536 | 58 | 244 | 0.0 | 4.0 | 0.00 | 0.00 | 0.00 | 73 | 1017.6 |
| 20260831160033 | 56 | 247 | 0.0 | 0.0 | 0.00 | 0.00 | 0.00 | 77 | 1017.7 |
| 20260831154532 | 53 | 247 | 0.0 | 1.0 | 0.00 | 0.00 | 0.00 | 81 | 1017.7 |
| 20260831153036 | 50 | 247 | 0.0 | 1.0 | 0.00 | 0.00 | 0.00 | 83 | 1017.8 |
| 20260831151536 | 48 | 247 | 1.0 | 3.0 | 0.00 | 0.00 | 0.00 | 85 | 1017.8 |
| 20260831150143 | 46 | 233 | 0.0 | 2.0 | 0.00 | 0.00 | 0.00 | 86 | 1017.6 |
| 20260831144644 | 44 | 221 | 0.0 | 1.0 | 0.00 | 0.00 | 0.00 | 87 | 1017.5 |
| 20260831143034 | 44 | 202 | 0.0 | 0.0 | 0.00 | 0.00 | 0.00 | 86 | 1017.2 |
| 20260831141531 | 43 | 214 | 0.0 | 2.0 | 0.00 | 0.00 | 0.00 | 85 | 1017.1 |
| 20260831140031 | 43 | 246 | 1.0 | 3.0 | 0.00 | 0.00 | 0.00 | 84 | 1017.0 |
| 20260831134533 | 44 | 202 | 0.0 | 2.0 | 0.00 | 0.00 | 0.00 | 84 | 1017.0 |
| 20260831133033 | 44 | 204 | 1.0 | 3.0 | 0.00 | 0.00 | 0.00 | 84 | 1017.0 |
| 20260831131536 | 44 | 206 | 2.0 | 6.0 | 0.00 | 0.00 | 0.00 | 84 | 1017.0 |
| 20260831124531 | 45 | 215 | 2.0 | 4.0 | 0.00 | 0.00 | 0.00 | 83 | 1017.0 |
| 20260831123028 | 45 | 237 | 1.0 | 3.0 | 0.00 | 0.00 | 0.00 | 82 | 1017.0 |
| 20260831121533 | 45 | 233 | 2.0 | 3.0 | 0.00 | 0.00 | 0.00 | 81 | 1017.0 |
| 20260831120034 | 45 | 238 | 2.0 | 4.0 | 0.00 | 0.00 | 0.00 | 80 | 1017.0 |
| 20260831113029 | 46 | 229 | 2.0 | 4.0 | 0.00 | 0.00 | 0.00 | 82 | 1017.1 |
| 20260831111531 | 46 | 213 | 2.0 | 4.0 | 0.00 | 0.00 | 0.00 | 81 | 1017.0 |
| 20260831110030 | 46 | 223 | 2.0 | 5.0 | 0.00 | 0.00 | 0.00 | 80 | 1017.0 |
| 20260831104536 | 47 | 242 | 1.0 | 5.0 | 0.00 | 0.00 | 0.00 | 80 | 1017.0 |
| 20260831103033 | 47 | 233 | 2.0 | 5.0 | 0.00 | 0.00 | 0.00 | 79 | 1017.0 |
| 20260831100034 | 48 | 202 | 1.0 | 3.0 | 0.00 | 0.00 | 0.00 | 79 | 1017.3 |
| 20260831093035 | 48 | 222 | 1.0 | 3.0 | 0.00 | 0.00 | 0.00 | 77 | 1017.5 |
| 20260831091611 | 49 | 203 | 0.0 | 2.0 | 0.00 | 0.00 | 0.00 | 77 | 1017.6 |
| 20260831090035 | 49 | 233 | 0.0 | 3.0 | 0.00 | 0.00 | 0.00 | 77 | 1017.7 |
| 20260831084533 | 49 | 191 | 0.0 | 2.0 | 0.00 | 0.00 | 0.00 | 77 | 1017.9 |
| 20260831083032 | 49 | 225 | 0.0 | 3.0 | 0.00 | 0.00 | 0.00 | 75 | 1017.9 |
| 20260831080109 | 50 | 239 | 0.0 | 1.0 | 0.00 | 0.00 | 0.00 | 74 | 1017.9 |
| 20260831074534 | 50 | 210 | 1.0 | 4.0 | 0.00 | 0.00 | 0.00 | 73 | 1018.0 |
| 20260831070031 | 51 | 206 | 1.0 | 4.0 | 0.00 | 0.00 | 0.00 | 72 | 1018.1 |
| 20260831064536 | 51 | 202 | 1.0 | 4.0 | 0.00 | 0.00 | 0.00 | 73 | 1018.2 |
| 20260831063031 | 51 | 202 | 1.0 | 5.0 | 0.00 | 0.00 | 0.00 | 73 | 1018.3 |
| 20260831061534 | 52 | 213 | 0.0 | 4.0 | 0.00 | 0.00 | 0.00 | 72 | 1018.4 |
| 20260831060032 | 52 | 202 | 0.0 | 3.0 | 0.00 | 0.00 | 0.00 | 72 | 1018.3 |